Simultaneous Nadir Overpasses (SNOs) Predictions

Prediction of SNOs between METOP-A and NOAA-19 Satellite Orbit:

Table of predicted SNOs for the next 14.0 days since TLE Epoch: 5/2/2013
Index Date (METOP-A) Time (METOP-A) Lat,Lon (METOP-A) SZA (METOP-A ) Date (NOAA-19) Time (NOAA-19) Lat,Lon (NOAA-19) SZA (NOAA-19 ) Distance(km) Time Diff (sec)
1 05/09/2013 11:12:13 73.47, 5.08 56.02 05/09/2013 11:10:59 73.49, 4.94 56.06 4.85 74
2 05/09/2013 12:02:55 -73.44, 172.34 124.02 05/09/2013 12:01:54 -73.45, 172.33 124.01 0.51 61
3 05/09/2013 12:53:36 73.40, -20.42 55.94 05/09/2013 12:53:02 73.42, -20.39 55.95 1.80 34
4 05/09/2013 13:44:17 -73.42, 146.96 124.06 05/09/2013 13:43:58 -73.42, 146.88 124.06 2.67 19
5 05/09/2013 14:34:58 73.38, -45.81 55.90 05/09/2013 14:35:06 73.39, -45.84 55.90 1.15 8
6 05/09/2013 15:25:40 -73.35, 121.46 124.14 05/09/2013 15:26:01 -73.34, 121.54 124.16 3.11 21
7 05/09/2013 16:16:20 73.36, -71.19 55.86 05/09/2013 16:17:10 73.36, -71.29 55.85 3.12 50
8 05/09/2013 17:07:02 -73.33, 96.07 124.18 05/09/2013 17:08:05 -73.31, 96.09 124.21 2.73 63
9 05/09/2013 17:57:55 72.68, -97.99 55.23 05/09/2013 17:59:02 72.73, -95.42 55.17 85.07 67




NCC Satellite Simultaneous Nadir Overpasses (SNOs) Prediction Service
